Memphis, TN

9:49 AM CDT on September 25, 2017 (GMT -0500)
Memphis International

Weather History for KMEM - April, 2013

Change the Weather History Date:

Wednesday, April 3, 2013

  Actual Average Record
Temperature  
Mean Temperature 47 °F 59 °F  
Max Temperature 51 °F 70 °F 86 °F (1940)
Min Temperature 42 °F 49 °F 30 °F (1962)
Degree Days  
Heating Degree Days 18 7  
Month to date heating degree days 43 22  
Since 1 July heating degree days 2747 2830  
Cooling Degree Days 0 2  
Month to date cooling degree days 0 4  
Year to date cooling degree days 11 24  
Moisture  
Dew Point 29 °F    
Average Humidity 52    
Maximum Humidity 70    
Minimum Humidity 34    
Precipitation  
Precipitation 0.03 in 0.17 in 2.99 in (1957)
Month to date precipitation 0.21 0.52  
Year to date precipitation 17.16 14.05  
Snow  
Snow 0.00 in 0.00 in - ()
Month to date snowfall 0.0 0.0  
Since 1 July snowfall 0.9 3.8  
Snow Depth 0.00 in    
Sea Level Pressure  
Sea Level Pressure 30.18 in    
Wind  
Wind Speed 11 mph (NE)    
Max Wind Speed 20 mph    
Max Gust Speed 24 mph    
Visibility 10 miles    
Events Rain    
T = Trace of Precipitation, MM = Missing Value Source: NWS Daily Summary

Daily Weather History Graph

Daily Weather History Graph

Search for Another Location

Airport or City:

Trip Planner

Search our weather history database for the weather conditions in past years. The results will help you decide how hot, cold, wet, or windy it might be!

Date:

Astronomy

Apr. 03, 2013 Rise Set
Actual Time 6:43 AM CDT 7:23 PM CDT
Civil Twilight 6:18 AM CDT 7:48 PM CDT
Nautical Twilight 5:47 AM CDT 8:18 PM CDT
Astronomical Twilight 5:17 AM CDT 8:49 PM CDT
Moon 2:09 AM CDT (4/3) 12:49 PM CDT (4/3)
Length of Visible Light 13h 30m
Length of Day
12h 39m
Last Quarter, 44% of the Moon is Illuminated
Apr 3
Last Quarter
Apr 10
New
Apr 18
First Quarter
Apr 25
Full
May 2
Last Quarter

Hourly Weather History & Observations

Time (CDT) Temp. Windchill Dew Point Humidity Pressure Visibility Wind Dir Wind Speed Gust Speed Precip Events Conditions
12:54 AM 42.1 °F 38.4 °F 33.1 °F 70% 30.22 in 10.0 mi NNE 5.8 mph - N/A   Overcast
1:54 AM 42.1 °F 36.6 °F 32.0 °F 67% 30.20 in 10.0 mi NE 9.2 mph - N/A   Overcast
2:54 AM 43.0 °F 36.8 °F 30.0 °F 60% 30.16 in 10.0 mi NE 11.5 mph - N/A   Overcast
3:54 AM 44.1 °F 38.1 °F 28.9 °F 55% 30.17 in 10.0 mi ENE 11.5 mph - N/A   Overcast
4:54 AM 44.1 °F 38.6 °F 28.0 °F 53% 30.19 in 10.0 mi NE 10.4 mph - N/A   Overcast
5:54 AM 44.1 °F 37.7 °F 27.0 °F 51% 30.21 in 10.0 mi ENE 12.7 mph - N/A   Overcast
6:54 AM 44.1 °F 38.1 °F 27.0 °F 51% 30.22 in 10.0 mi NE 11.5 mph - N/A   Mostly Cloudy
7:54 AM 44.1 °F 37.1 °F 25.0 °F 47% 30.22 in 10.0 mi ENE 15.0 mph - N/A   Overcast
8:54 AM 45.0 °F 38.5 °F 23.0 °F 42% 30.22 in 10.0 mi ENE 13.8 mph 23.0 mph N/A   Overcast
9:54 AM 46.0 °F 40.2 °F 24.1 °F 42% 30.23 in 10.0 mi ENE 12.7 mph - N/A   Overcast
10:54 AM 46.9 °F - 21.9 °F 37% 30.22 in 10.0 mi ENE 13.8 mph - N/A   Overcast
11:54 AM 48.0 °F - 21.9 °F 36% 30.21 in 10.0 mi ENE 15.0 mph - N/A   Overcast
12:54 PM 48.0 °F - 23.0 °F 37% 30.22 in 10.0 mi NE 17.3 mph 24.2 mph N/A   Overcast
1:54 PM 46.9 °F - 30.9 °F 54% 30.23 in 10.0 mi ENE 9.2 mph - 0.01 in Rain Light Rain
2:54 PM 46.9 °F - 30.9 °F 54% 30.22 in 10.0 mi NE 9.2 mph - 0.00 in Rain Light Rain
3:54 PM 46.9 °F - 35.1 °F 63% 30.20 in 10.0 mi ENE 5.8 mph - 0.01 in Rain Light Rain
4:54 PM 46.9 °F - 35.1 °F 63% 30.17 in 10.0 mi ENE 10.4 mph - 0.01 in Rain Light Rain
5:54 PM 46.9 °F - 34.0 °F 61% 30.13 in 10.0 mi ENE 8.1 mph - 0.00 in   Overcast
6:09 PM 48.2 °F - 33.8 °F 58% 30.13 in 10.0 mi ENE 6.9 mph - N/A   Overcast
6:54 PM 48.0 °F - 35.1 °F 61% 30.13 in 10.0 mi NE 4.6 mph - 0.00 in Rain Light Rain
7:54 PM 48.9 °F - 34.0 °F 56% 30.14 in 10.0 mi NNE 5.8 mph - 0.00 in   Overcast
8:54 PM 50.0 °F - 30.9 °F 48% 30.15 in 10.0 mi NNE 5.8 mph - N/A   Overcast
9:54 PM 50.0 °F - 30.0 °F 46% 30.15 in 10.0 mi NE 10.4 mph - N/A   Overcast
10:09 PM 50.0 °F - 28.4 °F 43% 30.14 in 10.0 mi NE 9.2 mph - N/A   Overcast
10:54 PM 50.0 °F - 28.0 °F 43% 30.14 in 10.0 mi NE 10.4 mph - N/A   Overcast
11:09 PM 51.8 °F - 26.6 °F 38% 30.14 in 10.0 mi NE 9.2 mph - N/A   Overcast
11:16 PM 50.0 °F - 26.6 °F 40% 30.14 in 10.0 mi NE 10.4 mph - N/A   Overcast
11:54 PM 50.0 °F - 27.0 °F 41% 30.13 in 10.0 mi ENE 10.4 mph - N/A   Overcast